Regional Weather Roundup
Issued by NWS New Orleans/Baton Rouge, LA

Home | Current Version | Previous Version | Graphics & Text | Print | Product List | Glossary On
Versions: 1 2 3 4 5 6 7 8 9 10 11 12 13 14 15 16 17 18 19 20 21 22 23 24 25 26 27 28 29 30 31 32 33 34 35 36 37 38 39 40 41 42 43 44 45 46 47 48 49 50
660
ASUS44 KLIX 220505
RWRLIX
NEW ORLEANS REGIONAL WEATHER ROUNDUP
NATIONAL WEATHER SERVICE NEW ORLEANS LA
1200 AM CDT WED OCT 22 2014

NOTE: "FAIR" INDICATES FEW OR NO CLOUDS BELOW 12,000 FEET WITH NO
      SIGNIFICANT WEATHER AND/OR OBSTRUCTIONS TO VISIBILITY.
      SKY/WX - SKY CONDITION AND SIGNIFICANT WEATHER.
      TMP - AIR TEMPERATURE.     DP    - DEWPOINT TEMPERATURE.
      RH  - RELATIVE HUMIDITY.   PRES  - PRESSURE.
      HI  - HEAT INDEX.          WCI   - WIND CHILL INDEX.

*  THESE STATIONS ARE NOT NWS OR FAA STATIONS AND ARE NOT UNDER
   NWS QUALITY CONTROL.

LAZ038-040-048-061>063-065>067-069-220600-
SOUTHEAST LOUISIANA

CITY           SKY/WX    TMP DP  RH WIND       PRES   REMARKS
N.O. AUDUBON     N/A     64  61  91 MISG        N/A
N.O. INTL ARPT CLEAR     64  56  75 CALM      30.03S
N.O. LAKEFRONT CLEAR     73  59  61 NE9       30.03F
N.O. DOWNTOWN*   N/A     70  55  60 CALM      30.03F
SLIDELL        CLEAR     57  53  86 N3        30.03F
BATON ROUGE    CLEAR     60  57  89 CALM      30.05S
BOOTHVILLE     CLEAR     69  63  81 CALM      30.02S
BELLE CHASSE   CLEAR     57  53  86 CALM      30.02F
BOGALUSA*        N/A     56  53  88 CALM      30.05S
NEW ROADS*       N/A     62  59  88 CALM      30.05S
GONZALES*        N/A     59  59 100 CALM      30.03F
HAMMOND*       CLEAR     59  54  82 CALM      30.06S
HOUMA*         CLEAR     58  56  94 CALM      30.02F
PORT FOURCHON* CLEAR     72  61  68 NE5       30.04F

$$

MSZ070-080>082-220600-
SOUTHERN MISSISSIPPI

CITY           SKY/WX    TMP DP  RH WIND       PRES   REMARKS
MCCOMB         CLEAR     63  57  81 N6        30.05F
GULFPORT       CLEAR     60  56  86 CALM      30.03R
BILOXI         CLEAR     64  56  77 NE2       30.03S
PASCAGOULA     CLEAR     52  51  97 CALM      30.03S

$$

COASTAL OBSERVATIONS
LAKE AND NEARSHORE STATIONS

STATION/POSITION TIME  TEMP    WIND        PRES    WAVE
                       AIR SEA DIR/SP/G            HT/PER
                 (UTC) (F)     (DEG/KT/KT) (MB)    (FT/S)
PASCAGOULA       0500   64      30/  5/  7 1016.2
WAVELAND YACHT   0500   68      30/  6/  7 1016.1
GRAND ISLE       0500   72 76   60/  5/  7 1016.9
SOUTHWEST PASS   0500   72 83              1016.3
NEW CANAL        0500   70 72  260/  1/  3 1017.3
SHELL BEACH      0500   71 70  310/  3/  4 1016.5

OFFSHORE STATIONS

STATION/POSITION TIME  TEMP    WIND        PRES    WAVE
                       AIR SEA DIR/SP/G            HT/PER
                 (UTC) (F)     (DEG/KT/KT) (MB)    (FT/S)
64 S DAUPHIN ISL 0433   76 79   40/ 12/ 14 1016.4    1/ 5

$$




USA.gov is the U.S. government's official web portal to all federal, state and local government web resources and services.